This demonstration page uses our WeatherBlox Daily Observations layout. Learn more.

Left ArrowRight Arrow

Hourly Observations for September 3, 2022

Temp ( °F °C ) Dew Point ( °F °C ) Humidity (%) Winds ( mph kmh ) Pressure ( in mb ) Visibility ( mi km ) Precip ( " mm )
12:15 am 00:15 Clear 73 23 68 20 83 83 SE 7 11 30.25 1024 10 16 0.00 0.00
12:35 am 00:35 Partly Cloudy 73 23 68 20 83 83 SE 7 11 30.25 1024 10 16 0.00 0.00
12:55 am 00:55 Mostly Cloudy 73 23 68 20 83 83 SSE 7 11 30.25 1024 10 16 0.00 0.00
1:15 am 01:15 Cloudy 73 23 68 20 83 83 SSE 5 7 30.25 1024 10 16 0.00 0.00
1:35 am 01:35 Cloudy 73 23 68 20 83 83 SSE 5 7 30.24 1024 10 16 0.00 0.00
1:55 am 01:55 Cloudy 73 23 68 20 83 83 SE 3 6 30.24 1024 10 16 0.00 0.00
2:15 am 02:15 Cloudy 73 23 68 20 83 83 SSE 5 7 30.25 1024 10 16 0.00 0.00
2:35 am 02:35 Cloudy 73 23 68 20 83 83 Calm 30.25 1024 10 16 0.00 0.00
2:55 am 02:55 Cloudy 73 23 68 20 83 83 SSE 6 9 30.25 1024 10 16 0.00 0.00
3:15 am 03:15 Cloudy 73 23 68 20 83 83 SSE 6 9 30.25 1024 10 16 0.00 0.00
3:35 am 03:35 Cloudy 73 23 68 20 83 83 SSE 5 7 30.25 1024 10 16 0.00 0.00
3:55 am 03:55 Cloudy 73 23 68 20 83 83 SSE 5 7 30.25 1024 10 16 0.00 0.00
4:15 am 04:15 Cloudy 72 22 68 20 88 88 SE 5 7 30.25 1024 10 16 0.00 0.00
4:35 am 04:35 Cloudy 72 22 68 20 88 88 SE 5 7 30.25 1024 10 16 0.00 0.00
4:55 am 04:55 Cloudy 72 22 70 21 94 94 SSE 3 6 30.26 1025 10 16 0.00 0.00
5:15 am 05:15 Mostly Cloudy 72 22 70 21 94 94 SSE 5 7 30.25 1024 10 16 0.00 0.00
5:35 am 05:35 Mostly Cloudy 72 22 70 21 94 94 SSE 6 9 30.25 1024 10 16 0.00 0.00
5:55 am 05:55 Cloudy 72 22 70 21 94 94 SE 3 6 30.25 1024 10 16 0.00 0.00
6:15 am 06:15 Mostly Cloudy 72 22 68 20 88 88 SE 5 7 30.25 1024 10 16 0.00 0.00
6:35 am 06:35 Partly Cloudy 72 22 68 20 88 88 SSE 3 6 30.26 1025 10 16 0.00 0.00
6:55 am 06:55 Mostly Cloudy 72 22 68 20 88 88 SE 6 9 30.26 1025 10 16 0.00 0.00
7:15 am 07:15 Mostly Cloudy 72 22 70 21 94 94 SSE 5 7 30.27 1025 10 16 0.00 0.00
7:35 am 07:35 Partly Cloudy 72 22 68 20 88 88 Calm 30.27 1025 10 16 0.00 0.00
7:55 am 07:55 undefined 72 22 70 21 94 94 Calm 30.27 1025 N/A 0.00 0.00
8:15 am 08:15 Mostly Cloudy 72 22 70 21 94 94 Calm 30.27 1025 N/A 0.00 0.00
8:35 am 08:35 Cloudy 72 22 70 21 94 94 Calm 30.27 1025 N/A 0.00 0.00
8:55 am 08:55 Cloudy 73 23 70 21 89 89 Calm 30.27 1025 N/A 0.00 0.00
9:15 am 09:15 undefined 73 23 70 21 89 89 SSE 6 9 30.27 1025 N/A 0.00 0.00
9:35 am 09:35 Cloudy 75 24 70 21 83 83 S 6 9 30.27 1025 N/A 0.00 0.00
9:55 am 09:55 Cloudy 77 25 70 21 79 79 SSE 3 6 30.27 1025 N/A 0.00 0.00
10:15 am 10:15 Cloudy 77 25 70 21 79 79 SSE 7 11 30.27 1025 N/A 0.00 0.00
10:35 am 10:35 Cloudy 77 25 72 22 83 83 S 6 9 30.27 1025 N/A 0.00 0.00
10:55 am 10:55 Cloudy 77 25 72 22 83 83 SSW 3 6 30.27 1025 N/A 0.00 0.00
11:15 am 11:15 Cloudy 77 25 72 22 83 83 S 5 7 30.27 1025 N/A 0.00 0.00
11:35 am 11:35 Cloudy 79 26 72 22 79 79 S 5 7 30.26 1025 N/A 0.00 0.00
11:55 am 11:55 Mostly Cloudy 81 27 72 22 74 74 SSW 5 7 30.25 1024 N/A 0.00 0.00
12:15 pm 12:15 Mostly Cloudy 81 27 70 21 70 70 Calm 30.25 1024 N/A 0.00 0.00
12:35 pm 12:35 Mostly Cloudy 81 27 70 21 70 70 SSE 6 9 30.24 1024 N/A 0.00 0.00
12:55 pm 12:55 Partly Cloudy 84 29 70 21 62 62 SW 8 13 30.23 1024 N/A 0.00 0.00
1:15 pm 13:15 Partly Cloudy 84 29 70 21 62 62 SW 8 13 30.23 1024 10 16 0.00 0.00
1:35 pm 13:35 Partly Cloudy 84 29 70 21 62 62 SSE 8 13 30.22 1023 10 16 0.00 0.00
1:55 pm 13:55 Partly Cloudy 86 30 70 21 59 59 Calm 30.22 1023 N/A 0.00 0.00
2:15 pm 14:15 Mostly Cloudy 86 30 70 21 59 59 SSW 10 17 30.21 1023 10 16 0.00 0.00
2:35 pm 14:35 Mostly Cloudy 86 30 70 21 59 59 SSW 9 15 30.20 1023 10 16 0.00 0.00
2:55 pm 14:55 Partly Cloudy 88 31 70 21 55 55 SW 8 13 30.20 1023 10 16 0.00 0.00
3:15 pm 15:15 Partly Cloudy 88 31 70 21 55 55 SSE 10 17 30.19 1022 10 16 0.00 0.00
3:35 pm 15:35 Partly Cloudy 88 31 70 21 55 55 SW 7 11 30.18 1022 10 16 0.00 0.00
3:55 pm 15:55 Partly Cloudy 86 30 68 20 55 55 SSW 5 7 30.17 1022 10 16 0.00 0.00
4:15 pm 16:15 Partly Cloudy 88 31 68 20 52 52 SSE 5 7 30.16 1021 10 16 0.00 0.00
4:35 pm 16:35 Sunny 86 30 68 20 55 55 SSW 6 9 30.16 1021 10 16 0.00 0.00
4:55 pm 16:55 Partly Cloudy 86 30 70 21 59 59 S 6 9 30.16 1021 10 16 0.00 0.00
5:15 pm 17:15 Partly Cloudy 88 31 70 21 55 55 SSW 6 9 30.16 1021 10 16 0.00 0.00
5:35 pm 17:35 Partly Cloudy 86 30 70 21 59 59 S 7 11 30.15 1021 10 16 0.00 0.00
5:55 pm 17:55 Partly Cloudy 88 31 70 21 55 55 S 8 13 30.15 1021 10 16 0.00 0.00
6:15 pm 18:15 Sunny 86 30 70 21 59 59 SSW 7 11 30.15 1021 10 16 0.00 0.00
6:35 pm 18:35 Sunny 86 30 70 21 59 59 SSW 7 11 30.14 1021 10 16 0.00 0.00
6:55 pm 18:55 Sunny 84 29 70 21 62 62 S 6 9 30.13 1020 10 16 0.00 0.00
7:15 pm 19:15 Partly Cloudy 84 29 70 21 62 62 S 5 7 30.13 1020 10 16 0.00 0.00
7:35 pm 19:35 Mostly Cloudy 82 28 70 21 66 66 S 5 7 30.13 1020 10 16 0.00 0.00
7:55 pm 19:55 Partly Cloudy 81 27 70 21 70 70 SSW 3 6 30.14 1021 10 16 0.00 0.00
8:15 pm 20:15 Clear 81 27 70 21 70 70 S 5 7 30.14 1021 10 16 0.00 0.00
8:35 pm 20:35 Clear 81 27 70 21 70 70 S 6 9 30.15 1021 10 16 0.00 0.00
8:55 pm 20:55 Clear 79 26 70 21 74 74 S 8 13 30.15 1021 10 16 0.00 0.00
9:15 pm 21:15 Clear 79 26 70 21 74 74 S 6 9 30.16 1021 10 16 0.00 0.00
9:35 pm 21:35 Clear 77 25 70 21 79 79 S 5 7 30.16 1021 10 16 0.00 0.00
9:55 pm 21:55 Clear 77 25 70 21 79 79 S 5 7 30.16 1021 10 16 0.00 0.00
10:15 pm 22:15 Mostly Cloudy 77 25 70 21 79 79 S 5 7 30.17 1022 10 16 0.00 0.00
10:35 pm 22:35 Partly Cloudy 77 25 68 20 74 74 S 6 9 30.17 1022 10 16 0.00 0.00
10:55 pm 22:55 Partly Cloudy 77 25 68 20 74 74 S 6 9 30.17 1022 10 16 0.00 0.00
11:15 pm 23:15 Mostly Cloudy 77 25 68 20 74 74 S 7 11 30.17 1022 10 16 0.00 0.00
11:35 pm 23:35 Partly Cloudy 73 23 68 20 83 83 SSW 3 6 30.18 1022 10 16 0.00 0.00
11:55 pm 23:55 Clear 73 23 68 20 83 83 W 3 6 30.18 1022 10 16 0.00 0.00

Powered by AerisWeather